Flag for Switzerland Weather past 2 weeks in Lancy, Geneva, Switzerland

Now
59 °F

Partly sunny.


Feels Like: 58 °F
Forecast: 50 / 69 °F
Wind: 7 mph from Southwest

Location: Geneva Cointrin Airport

Current Time: Apr 25, 2015 at 9:10:23 AM

Latest Report: Apr 25, 2015 at 8:20 AM


Visibility: N/A

Pressure: 29.92 "Hg

Humidity: 63%

Dew point: 46 °F

Location of LancyLocation

Historic Weather in Lancy — Graph

°F

Lancy temperature yesterday

Maximum temperature yesterday: 75 °F (at 3:50 PM)
Minimum temperature yesterday: 43 °F (at 5:50 AM)
Average temperature yesterday: 60 °F

Past Weeks' High & Low Weather Summary

 TemperatureHumidityPressure
High75 °F (Apr 24, 3:50 PM)100% (Apr 12, 6:20 AM)30.45 "Hg (Apr 12, 6:20 AM)
Low39 °F (Apr 10, 7:20 AM)19% (Apr 24, 3:20 PM)29.89 "Hg (Apr 24, 4:50 PM)
Average56 °F59%30.16 "Hg
* Reported Apr 10 7:20 AM — Apr 25 7:50 AM, Lancy, Weather by CustomWeather, © 2015

Note: Actual official high and low records may vary slightly from our data, if they occured in-between our weather recording intervals... More about our weather records

Advertising

Lancy weather history for previous 24 hours

 ConditionsComfort  
Time TempWeatherWind HumidityBarometerVisibility
7:50 AM
Sat, Apr 25
59 °FPartly sunny.7 mph63%29.92 "HgN/A
7:20 AM59 °FPassing clouds.8 mph59%29.92 "HgN/A
6:50 AM57 °FPassing clouds.8 mph67%29.92 "HgN/A
6:20 AM57 °FPassing clouds.6 mph72%29.89 "HgN/A
5:20 AM55 °FPassing clouds.3 mph82%29.89 "HgN/A
4:50 AM55 °FPassing clouds.6 mph82%29.92 "HgN/A
4:20 AM55 °FPassing clouds.5 mph82%29.92 "HgN/A
3:50 AM55 °FSprinkles. Partly cloudy.3 mph82%29.92 "HgN/A
2:50 AM54 °FPassing clouds.1 mph72%29.92 "HgN/A
2:20 AM54 °FPartly cloudy.1 mph72%29.92 "HgN/A
1:50 AM54 °FPassing clouds.3 mph72%29.92 "HgN/A
1:20 AM54 °FPassing clouds.1 mph72%29.92 "HgN/A
12:50 AM54 °FPassing clouds.1 mph72%29.92 "HgN/A
12:20 AM54 °FPassing clouds.2 mph67%29.92 "HgN/A
11:20 PM
Fri, Apr 24
54 °FClear.1 mph67%29.92 "Hg10 mi
10:50 PM55 °FClear.No wind55%29.92 "Hg10 mi
10:20 PM55 °FClear.1 mph59%29.92 "Hg10 mi
9:50 PM57 °FClear.1 mph55%29.92 "Hg10 mi
9:20 PM61 °FSunny.2 mph45%29.89 "Hg10 mi
8:50 PM63 °FSunny.2 mph49%29.89 "Hg10 mi
8:20 PM64 °FSunny.3 mph46%29.89 "Hg10 mi
7:50 PM70 °FPassing clouds.5 mph31%29.89 "HgN/A
7:20 PM70 °FPassing clouds.5 mph31%29.89 "HgN/A
6:50 PM73 °FSunny.6 mph25%29.89 "Hg10 mi
6:20 PM73 °FPartly sunny.7 mph22%29.89 "HgN/A
5:50 PM73 °FPartly sunny.7 mph22%29.89 "HgN/A
5:20 PM73 °FPartly sunny.7 mph22%29.89 "HgN/A
4:50 PM73 °FPartly sunny.7 mph20%29.89 "HgN/A
4:20 PM75 °FPartly sunny.5 mph21%29.92 "HgN/A
3:50 PM75 °FScattered clouds.3 mph22%29.92 "HgN/A
3:20 PM73 °FScattered clouds.5 mph19%29.95 "HgN/A
2:50 PM72 °FScattered clouds.7 mph27%29.95 "HgN/A
2:20 PM72 °FScattered clouds.5 mph31%29.95 "HgN/A
1:50 PM72 °FPassing clouds.2 mph33%29.98 "HgN/A
1:20 PM70 °FPassing clouds.3 mph35%29.98 "HgN/A
12:50 PM68 °FPassing clouds.6 mph43%29.98 "HgN/A
12:20 PM66 °FPassing clouds.3 mph46%30.01 "HgN/A
11:50 AM64 °FPassing clouds.3 mph52%30.01 "HgN/A
11:20 AM64 °FPassing clouds.2 mph49%30.01 "HgN/A
10:50 AM63 °FSunny.2 mph52%30.01 "Hg10 mi
10:20 AM61 °FSunny.2 mph55%30.01 "Hg10 mi
9:50 AM59 °FSunny.2 mph55%30.01 "Hg10 mi
9:20 AM57 °FSunny.2 mph63%30.01 "Hg10 mi
Weather by CustomWeather, © 2015

See weather overviewHow to use our weather pages